Home > Weather > Gatineau > Past weeks

Flag for Canada Past Weather in Gatineau, Quebec, Canada — Yesterday and Last 2 Weeks

Now
79 °F

Scattered clouds.


Feels Like: 79 °F
Forecast: N/A
Wind: 13 mph from North

Location: Ottawa Int'L. Ont.

Current Time: Jul 29, 2016 at 5:54:11 PM

Latest Report: Jul 29, 2016 at 5:00 PM


Visibility: 15 mi

Pressure: 29.98 "Hg

Humidity: 45%

Dew Point: 55 °F

Location of GatineauLocation

Past Weather in Gatineau — Graph

°F

Gatineau Temperature Yesterday

Maximum temperature yesterday: 84 °F (at 3:00 PM)
Minimum temperature yesterday: 68 °F (at 12:00 AM)
Average temperature yesterday: 74 °F

High & Low Weather Summary for the Past Weeks

 TemperatureHumidityPressure
High93 °F (Jul 22, 5:00 PM)94% (Jul 14, 11:00 PM)30.23 "Hg (Jul 14, 11:00 PM)
Low52 °F (Jul 19, 6:00 AM)34% (Jul 22, 5:00 PM)29.64 "Hg (Jul 14, 6:00 PM)
Average72 °F67%29.92 "Hg
* Reported Jul 14 4:00 PM — Jul 29 4:00 PM, Gatineau, Weather by CustomWeather, © 2016

Note: Actual official high and low records may vary slightly from our data, if they occured in-between our weather recording intervals... More about our weather records

Advertising

Gatineau Weather History for the Previous 24 Hours

Scroll right to see more
 ConditionsComfort  
Time TempWeatherWind HumidityBarometerVisibility
4:00 PM
Fri, Jul 29
79 °FScattered clouds.9 mph45%29.98 "Hg15 mi
3:00 PM77 °FPartly sunny.12 mph47%29.98 "Hg15 mi
2:00 PM79 °FPartly sunny.8 mph45%29.98 "Hg15 mi
1:00 PM77 °FBroken clouds.8 mph44%29.98 "Hg15 mi
12:00 PM73 °FBroken clouds.6 mph53%29.99 "Hg15 mi
11:00 AM73 °FBroken clouds.9 mph53%29.99 "Hg15 mi
10:00 AM72 °FBroken clouds.8 mph57%29.98 "Hg15 mi
9:00 AM68 °FPartly sunny.8 mph64%29.99 "Hg15 mi
8:00 AM66 °FPartly sunny.12 mph68%29.98 "Hg15 mi
7:00 AM64 °FScattered clouds.7 mph73%29.97 "Hg15 mi
6:00 AM63 °FPassing clouds.10 mph77%29.96 "Hg15 mi
5:00 AM63 °FPassing clouds.6 mph77%29.96 "Hg15 mi
4:00 AM64 °FClear.9 mph73%29.95 "Hg15 mi
3:00 AM66 °FClear.10 mph68%29.94 "Hg15 mi
2:00 AM66 °FClear.10 mph73%29.94 "Hg15 mi
1:00 AM68 °FClear.12 mph69%29.94 "Hg15 mi
12:00 AM70 °FPassing clouds.10 mph69%29.93 "Hg15 mi
11:00 PM
Thu, Jul 28
68 °FPassing clouds.2 mph73%29.92 "Hg15 mi
10:00 PM72 °FPassing clouds.5 mph65%29.92 "Hg15 mi
9:00 PM73 °FPartly sunny.5 mph61%29.91 "Hg15 mi
8:00 PM79 °FScattered clouds.5 mph48%29.90 "Hg15 mi
7:00 PM81 °FScattered clouds.9 mph45%29.89 "Hg15 mi
6:00 PM82 °FScattered clouds.5 mph42%29.89 "Hg15 mi
5:00 PM82 °FPartly sunny.7 mph48%29.88 "Hg15 mi
Weather by CustomWeather, © 2016

See weather overviewHow to use our weather pages